Showing default

CONNECTA IOT-10, 64555

Orbit data source: Space-Track

CONNECTA IOT-10, 64555 is a payload satellite owned by Plan-S (TR) in SSO that was launched on Mon, 23 Jun 2025 UTC via an FALCON 9 launch vehicle from the Air Force Western Test Range (AFWTR). Payload-class satellites include a variety of spacecraft equipped with specific instruments for various scientific and technological missions. These include communications satellites like Starlink; space stations such as the ISS; scientific satellites like the Hubble; Earth observation satellites from companies like Planet Labs, Umbra, and HawkEye 360; GPS; miniature CubeSats for education and research; and military/defense satellites.

Loading next visibility...
Identifier
64555, 2025-135AD
Orbit
SSO
Country
Flag of UnknownUnknown / TURK
Related business
Manufacturer
Plan-S
Mission
Operational Commercial Communications
Bus & Motor
CUBESAT 6U, Unknown motor
Mass
10 kg wet, 10 kg dry
Launch date (UTC)
2025-06-23 (7 months ago)
Launch vehicle
FALCON 9
Launch site
Air Force Western Test Range (AFWTR)
Object type
Payload
Rocket body
Debris
Shape & HBR
Box, 0.1 m
Radar Cross Section
0.080 m², Medium (>0.1 m² and < 1m²)

Expand to show TLE details & history
Last TLE update: 11 hours ago

TLE from 11 hours ago
0 CONNECTA IOT-10
1 64555U 25135AD  26035.80277983  .00005467  00000-0  25569-3 0  9993
2 64555  97.4549 152.2258 0002335  78.0932 282.0565 15.20175141 34745
Epoch: 2026-02-04T19:16Z
TLE epoch observation values (Epoch: 2026-02-04T19:16:00.177Z)
Latitude
0.00001°
Longitude
88.26093°
Altitude
508.066 km
Speed
7.61 km/s
True Right ascension
10h 08m 54s
True Declination
0° 00' 00"
Sunlit
Object was in full shadow at epoch
Visualization orbit readout
Latitude
Unknown
Longitude
Unknown
Altitude
Unknown
Speed
Unknown
Apparent Right ascension
Unknown
Apparent Declination
Unknown
Sunlit
N/A
Visualization observer readout
Local Sidereal Time
07:52:48
Azimuth
Unknown
Elevation
Unknown
Doppler factor
Unknown
Orbital elements
Apogee altitude
503.886 km
Perigee altitude
500.673 km
Semi-major axis
6,880.417 km
Eccentricity
0.00023
Inclination
97.4549°
RAAN
152.2258°
Arg. of periapsis
78.0932°
True anomaly
282.03033°
Mean anomaly
282.0565°
Eccentric anomaly
282.04342°
Mean motion
3.80295 °/min
Orbital period
94.66 mins
BSTAR
0.00025569
Loading maneuver chart data...
Computing Atmospheric mass density...
Loading historical data...
Loading historical data...
Loading historical data...
Loading historical data...
Loading historical data...
Loading historical data...
Loading historical data...

Documentation

Showing up to 5 results
|